Location: Moscow
(55.7500°N, 37.5830°E)
Time: 11:14:32
(UTC+03:00)

Explorer 7 - Pass Details

Date: 04 December 2021
Orbit: 483 x 674 km, 50.3° (Epoch: 19 January)

Event Time Altitude Azimuth Distance (km) Brightness Sun altitude
Rises 08:16:58 0° 247° (WSW) 2,756 10.1 -3.4°
Reaches altitude 10° 08:19:23 10° 239° (WSW) 1,825 9.3 -3.1°
Maximum altitude 08:23:11 36° 173° (S) 850 8.3 -2.7°
Drops below altitude 10° 08:26:48 10° 106° (ESE) 1,733 10.8 -2.2°
Sets 08:29:03 0° 97° (E) 2,595 11.4 -2.0°
